iso_date,epoch_date,Year,Hour,Min,DOY,POS_DOY,Lat,Lon,BP,Ts,Ta,has_bp,has_ts,has_ta,BuoyID,Buoy_Type,Buoy_Owner,Logistics,Hemisphere
2015-09-15T00:00:00Z,1442275200,2015,0,0,258.0,255.156,69.1648,-138.195,1001.2,5.0,-999.0,yes,yes,no,300234011914170,CALIB,unknown,unknown,North
2015-09-15T01:00:28Z,1442278829,2015,1,0,258.042,255.198,69.1648,-138.195,1001.2,5.2,-999.0,yes,yes,no,300234011914170,CALIB,unknown,unknown,North
2015-09-15T01:59:31Z,1442282371,2015,2,0,258.083,255.239,69.1648,-138.195,1001.4,5.1,-999.0,yes,yes,no,300234011914170,CALIB,unknown,unknown,North
2015-09-15T03:00:00Z,1442286000,2015,3,0,258.125,255.281,69.1648,-138.195,1001.7,4.8,-999.0,yes,yes,no,300234011914170,CALIB,unknown,unknown,North
2015-09-15T04:00:28Z,1442289629,2015,4,0,258.167,255.323,69.1648,-138.195,1002.0,4.4,-999.0,yes,yes,no,300234011914170,CALIB,unknown,unknown,North
2015-09-15T04:59:31Z,1442293171,2015,5,0,258.208,255.364,69.1648,-138.195,1002.2,4.2,-999.0,yes,yes,no,300234011914170,CALIB,unknown,unknown,North
2015-09-15T06:00:00Z,1442296800,2015,6,0,258.25,255.406,69.1648,-138.195,1003.0,4.0,-999.0,yes,yes,no,300234011914170,CALIB,unknown,unknown,North
2015-09-15T07:00:28Z,1442300429,2015,7,0,258.292,255.448,69.1648,-138.195,1003.1,3.9,-999.0,yes,yes,no,300234011914170,CALIB,unknown,unknown,North
2015-09-15T07:59:31Z,1442303971,2015,8,0,258.333,255.489,69.1648,-138.195,1003.2,4.0,-999.0,yes,yes,no,300234011914170,CALIB,unknown,unknown,North
2015-09-15T09:00:00Z,1442307600,2015,9,0,258.375,255.531,69.1648,-138.195,1003.4,4.0,-999.0,yes,yes,no,300234011914170,CALIB,unknown,unknown,North
2015-09-15T10:00:28Z,1442311229,2015,10,0,258.417,255.573,69.1648,-138.195,1003.5,3.7,-999.0,yes,yes,no,300234011914170,CALIB,unknown,unknown,North
2015-09-15T10:59:31Z,1442314771,2015,11,0,258.458,255.614,69.1648,-138.195,1003.7,3.4,-999.0,yes,yes,no,300234011914170,CALIB,unknown,unknown,North
2015-09-15T12:00:00Z,1442318400,2015,12,0,258.5,255.656,69.1648,-138.195,1004.1,3.6,-999.0,yes,yes,no,300234011914170,CALIB,unknown,unknown,North
2015-09-15T13:00:28Z,1442322029,2015,13,0,258.542,255.698,69.1648,-138.195,1004.2,4.2,-999.0,yes,yes,no,300234011914170,CALIB,unknown,unknown,North
2015-09-15T13:59:31Z,1442325571,2015,14,0,258.583,255.739,69.1648,-138.195,1004.4,4.5,-999.0,yes,yes,no,300234011914170,CALIB,unknown,unknown,North
2015-09-15T15:00:00Z,1442329200,2015,15,0,258.625,255.781,69.1648,-138.195,1004.6,4.6,-999.0,yes,yes,no,300234011914170,CALIB,unknown,unknown,North
2015-09-15T16:00:28Z,1442332829,2015,16,0,258.667,255.823,69.1648,-138.195,1005.0,4.6,-999.0,yes,yes,no,300234011914170,CALIB,unknown,unknown,North
2015-09-15T16:59:31Z,1442336371,2015,17,0,258.708,255.864,69.1648,-138.195,1005.4,4.6,-999.0,yes,yes,no,300234011914170,CALIB,unknown,unknown,North
2015-09-15T18:00:00Z,1442340000,2015,18,0,258.75,255.906,69.1648,-138.195,1005.9,4.6,-999.0,yes,yes,no,300234011914170,CALIB,unknown,unknown,North
2015-09-15T19:00:28Z,1442343629,2015,19,0,258.792,255.948,69.1648,-138.195,1006.3,4.6,-999.0,yes,yes,no,300234011914170,CALIB,unknown,unknown,North
2015-09-15T19:59:31Z,1442347171,2015,20,0,258.833,255.989,69.1648,-138.195,1006.6,4.7,-999.0,yes,yes,no,300234011914170,CALIB,unknown,unknown,North
2015-09-15T21:00:00Z,1442350800,2015,21,0,258.875,256.031,69.1648,-138.195,1006.9,4.7,-999.0,yes,yes,no,300234011914170,CALIB,unknown,unknown,North
2015-09-15T22:00:28Z,1442354429,2015,22,0,258.917,256.073,69.1648,-138.195,1007.1,4.6,-999.0,yes,yes,no,300234011914170,CALIB,unknown,unknown,North
2015-09-15T22:59:31Z,1442357971,2015,23,0,258.958,256.114,69.1648,-138.195,1007.4,4.4,-999.0,yes,yes,no,300234011914170,CALIB,unknown,unknown,North
2015-09-16T00:00:00Z,1442361600,2015,0,0,259.0,256.156,69.1648,-138.195,1007.8,4.2,-999.0,yes,yes,no,300234011914170,CALIB,unknown,unknown,North
2015-09-16T01:00:28Z,1442365229,2015,1,0,259.042,256.198,69.1648,-138.195,1008.1,4.1,-999.0,yes,yes,no,300234011914170,CALIB,unknown,unknown,North
2015-09-16T01:59:31Z,1442368771,2015,2,0,259.083,256.239,69.1648,-138.195,1008.4,4.0,-999.0,yes,yes,no,300234011914170,CALIB,unknown,unknown,North
2015-09-16T03:00:00Z,1442372400,2015,3,0,259.125,256.281,69.1648,-138.195,1008.6,3.9,-999.0,yes,yes,no,300234011914170,CALIB,unknown,unknown,North
2015-09-16T04:00:28Z,1442376029,2015,4,0,259.167,256.323,69.1648,-138.195,1009.0,3.7,-999.0,yes,yes,no,300234011914170,CALIB,unknown,unknown,North
2015-09-16T04:59:31Z,1442379571,2015,5,0,259.208,256.364,69.1648,-138.195,1009.3,3.4,-999.0,yes,yes,no,300234011914170,CALIB,unknown,unknown,North
2015-09-16T06:00:00Z,1442383200,2015,6,0,259.25,256.406,69.1648,-138.195,1009.6,3.2,-999.0,yes,yes,no,300234011914170,CALIB,unknown,unknown,North
2015-09-16T07:00:28Z,1442386829,2015,7,0,259.292,256.448,69.1648,-138.195,1009.8,3.2,-999.0,yes,yes,no,300234011914170,CALIB,unknown,unknown,North
2015-09-16T07:59:31Z,1442390371,2015,8,0,259.333,256.489,69.1648,-138.195,1010.2,3.0,-999.0,yes,yes,no,300234011914170,CALIB,unknown,unknown,North
2015-09-16T09:00:00Z,1442394000,2015,9,0,259.375,256.531,69.1648,-138.195,1010.5,2.8,-999.0,yes,yes,no,300234011914170,CALIB,unknown,unknown,North
2015-09-16T10:00:28Z,1442397629,2015,10,0,259.417,256.573,69.1648,-138.195,1010.7,2.7,-999.0,yes,yes,no,300234011914170,CALIB,unknown,unknown,North
2015-09-16T10:59:31Z,1442401171,2015,11,0,259.458,256.614,69.1648,-138.195,1010.9,2.4,-999.0,yes,yes,no,300234011914170,CALIB,unknown,unknown,North
2015-09-16T12:00:00Z,1442404800,2015,12,0,259.5,256.656,69.1648,-138.195,1011.0,2.3,-999.0,yes,yes,no,300234011914170,CALIB,unknown,unknown,North
2015-09-16T13:00:28Z,1442408429,2015,13,0,259.542,256.698,69.1648,-138.195,1011.1,2.1,-999.0,yes,yes,no,300234011914170,CALIB,unknown,unknown,North
2015-09-16T13:59:31Z,1442411971,2015,14,0,259.583,256.739,69.1648,-138.195,1011.4,2.1,-999.0,yes,yes,no,300234011914170,CALIB,unknown,unknown,North
2015-09-16T15:00:00Z,1442415600,2015,15,0,259.625,256.781,69.1648,-138.195,1011.6,1.9,-999.0,yes,yes,no,300234011914170,CALIB,unknown,unknown,North
2015-09-16T16:00:28Z,1442419229,2015,16,0,259.667,256.823,69.1648,-138.195,1011.6,2.0,-999.0,yes,yes,no,300234011914170,CALIB,unknown,unknown,North
2015-09-16T16:59:31Z,1442422771,2015,17,0,259.708,256.864,69.1648,-138.195,1011.7,2.3,-999.0,yes,yes,no,300234011914170,CALIB,unknown,unknown,North
2015-09-16T18:00:00Z,1442426400,2015,18,0,259.75,256.906,69.1648,-138.195,1011.7,2.5,-999.0,yes,yes,no,300234011914170,CALIB,unknown,unknown,North
2015-09-16T19:00:28Z,1442430029,2015,19,0,259.792,256.948,69.1648,-138.195,1011.6,2.8,-999.0,yes,yes,no,300234011914170,CALIB,unknown,unknown,North
2015-09-16T19:59:31Z,1442433571,2015,20,0,259.833,256.989,69.1648,-138.195,1011.4,3.0,-999.0,yes,yes,no,300234011914170,CALIB,unknown,unknown,North
2015-09-16T21:00:00Z,1442437200,2015,21,0,259.875,257.031,69.1648,-138.195,1011.4,3.3,-999.0,yes,yes,no,300234011914170,CALIB,unknown,unknown,North
2015-09-16T22:00:28Z,1442440829,2015,22,0,259.917,257.073,69.1648,-138.195,1011.1,3.3,-999.0,yes,yes,no,300234011914170,CALIB,unknown,unknown,North
2015-09-16T22:59:31Z,1442444371,2015,23,0,259.958,257.114,69.1648,-138.195,1011.1,2.8,-999.0,yes,yes,no,300234011914170,CALIB,unknown,unknown,North
2015-09-17T00:00:00Z,1442448000,2015,0,0,260.0,257.156,69.1648,-138.195,1010.9,2.9,-999.0,yes,yes,no,300234011914170,CALIB,unknown,unknown,North
2015-09-17T01:00:28Z,1442451629,2015,1,0,260.042,257.198,69.1648,-138.195,1010.6,3.0,-999.0,yes,yes,no,300234011914170,CALIB,unknown,unknown,North
2015-09-17T01:59:31Z,1442455171,2015,2,0,260.083,257.239,69.1648,-138.195,1010.3,3.1,-999.0,yes,yes,no,300234011914170,CALIB,unknown,unknown,North
2015-09-17T03:00:00Z,1442458800,2015,3,0,260.125,257.281,69.1648,-138.195,1010.1,2.9,-999.0,yes,yes,no,300234011914170,CALIB,unknown,unknown,North
2015-09-17T04:00:28Z,1442462429,2015,4,0,260.167,257.323,69.1648,-138.195,1009.8,2.8,-999.0,yes,yes,no,300234011914170,CALIB,unknown,unknown,North
2015-09-17T04:59:31Z,1442465971,2015,5,0,260.208,257.364,69.1648,-138.195,1009.4,2.9,-999.0,yes,yes,no,300234011914170,CALIB,unknown,unknown,North
2015-09-17T06:00:00Z,1442469600,2015,6,0,260.25,257.406,69.1648,-138.195,1009.0,2.7,-999.0,yes,yes,no,300234011914170,CALIB,unknown,unknown,North
2015-09-17T07:00:28Z,1442473229,2015,7,0,260.292,257.448,69.1648,-138.195,1008.5,2.8,-999.0,yes,yes,no,300234011914170,CALIB,unknown,unknown,North
2015-09-17T07:59:31Z,1442476771,2015,8,0,260.333,257.489,69.1648,-138.195,1008.1,2.9,-999.0,yes,yes,no,300234011914170,CALIB,unknown,unknown,North
2015-09-17T09:00:00Z,1442480400,2015,9,0,260.375,257.531,69.1648,-138.195,1007.4,3.1,-999.0,yes,yes,no,300234011914170,CALIB,unknown,unknown,North
2015-09-17T10:00:28Z,1442484029,2015,10,0,260.417,257.573,69.1648,-138.195,1006.8,3.2,-999.0,yes,yes,no,300234011914170,CALIB,unknown,unknown,North
2015-09-17T10:59:31Z,1442487571,2015,11,0,260.458,257.614,69.1648,-138.195,1006.3,3.3,-999.0,yes,yes,no,300234011914170,CALIB,unknown,unknown,North
2015-09-17T12:00:00Z,1442491200,2015,12,0,260.5,257.656,69.1648,-138.195,1005.8,3.4,-999.0,yes,yes,no,300234011914170,CALIB,unknown,unknown,North
2015-09-17T13:00:28Z,1442494829,2015,13,0,260.542,257.698,69.1648,-138.195,1005.5,3.5,-999.0,yes,yes,no,300234011914170,CALIB,unknown,unknown,North
2015-09-17T13:59:31Z,1442498371,2015,14,0,260.583,257.739,69.1648,-138.195,1005.1,3.5,-999.0,yes,yes,no,300234011914170,CALIB,unknown,unknown,North
2015-09-17T15:00:00Z,1442502000,2015,15,0,260.625,257.781,69.1648,-138.195,1004.7,3.5,-999.0,yes,yes,no,300234011914170,CALIB,unknown,unknown,North
2015-09-17T16:00:28Z,1442505629,2015,16,0,260.667,257.823,69.1648,-138.195,1004.4,3.5,-999.0,yes,yes,no,300234011914170,CALIB,unknown,unknown,North
2015-09-17T16:59:31Z,1442509171,2015,17,0,260.708,257.864,69.1648,-138.195,1004.2,3.5,-999.0,yes,yes,no,300234011914170,CALIB,unknown,unknown,North
2015-09-17T18:00:00Z,1442512800,2015,18,0,260.75,257.906,69.1648,-138.195,1003.9,3.5,-999.0,yes,yes,no,300234011914170,CALIB,unknown,unknown,North
2015-09-17T19:00:28Z,1442516429,2015,19,0,260.792,257.948,69.1648,-138.195,1003.5,3.5,-999.0,yes,yes,no,300234011914170,CALIB,unknown,unknown,North
2015-09-17T19:59:31Z,1442519971,2015,20,0,260.833,257.989,69.1648,-138.195,1003.4,3.5,-999.0,yes,yes,no,300234011914170,CALIB,unknown,unknown,North
2015-09-17T21:00:00Z,1442523600,2015,21,0,260.875,258.031,69.1648,-138.195,1003.2,3.5,-999.0,yes,yes,no,300234011914170,CALIB,unknown,unknown,North
2015-09-17T22:00:28Z,1442527229,2015,22,0,260.917,258.073,69.1648,-138.195,1003.2,3.5,-999.0,yes,yes,no,300234011914170,CALIB,unknown,unknown,North
2015-09-17T22:59:31Z,1442530771,2015,23,0,260.958,258.114,69.1648,-138.195,1003.0,3.5,-999.0,yes,yes,no,300234011914170,CALIB,unknown,unknown,North
2015-09-18T00:00:00Z,1442534400,2015,0,0,261.0,258.156,69.1648,-138.195,1002.8,3.6,-999.0,yes,yes,no,300234011914170,CALIB,unknown,unknown,North
2015-09-18T01:00:28Z,1442538029,2015,1,0,261.042,258.198,69.1648,-138.195,1002.7,3.7,-999.0,yes,yes,no,300234011914170,CALIB,unknown,unknown,North
2015-09-18T01:59:31Z,1442541571,2015,2,0,261.083,258.239,69.1648,-138.195,1002.6,3.7,-999.0,yes,yes,no,300234011914170,CALIB,unknown,unknown,North
2015-09-18T03:00:00Z,1442545200,2015,3,0,261.125,258.281,69.1648,-138.195,1002.6,3.5,-999.0,yes,yes,no,300234011914170,CALIB,unknown,unknown,North
2015-09-18T04:00:28Z,1442548829,2015,4,0,261.167,258.323,69.1648,-138.195,1002.6,3.1,-999.0,yes,yes,no,300234011914170,CALIB,unknown,unknown,North
2015-09-18T04:59:31Z,1442552371,2015,5,0,261.208,258.364,69.1648,-138.195,1002.5,2.6,-999.0,yes,yes,no,300234011914170,CALIB,unknown,unknown,North
2015-09-18T06:00:00Z,1442556000,2015,6,0,261.25,258.406,69.1648,-138.195,1002.5,2.4,-999.0,yes,yes,no,300234011914170,CALIB,unknown,unknown,North
2015-09-18T07:00:28Z,1442559629,2015,7,0,261.292,258.448,69.1648,-138.195,1002.5,2.2,-999.0,yes,yes,no,300234011914170,CALIB,unknown,unknown,North
2015-09-18T07:59:31Z,1442563171,2015,8,0,261.333,258.489,69.1648,-138.195,1002.4,2.0,-999.0,yes,yes,no,300234011914170,CALIB,unknown,unknown,North
2015-09-18T09:00:00Z,1442566800,2015,9,0,261.375,258.531,69.1648,-138.195,1002.5,1.9,-999.0,yes,yes,no,300234011914170,CALIB,unknown,unknown,North
2015-09-18T10:00:28Z,1442570429,2015,10,0,261.417,258.573,69.1648,-138.195,1002.4,1.3,-999.0,yes,yes,no,300234011914170,CALIB,unknown,unknown,North
2015-09-18T10:59:31Z,1442573971,2015,11,0,261.458,258.614,69.1648,-138.195,1002.5,1.2,-999.0,yes,yes,no,300234011914170,CALIB,unknown,unknown,North
2015-09-18T12:00:00Z,1442577600,2015,12,0,261.5,258.656,69.1648,-138.195,1002.5,1.2,-999.0,yes,yes,no,300234011914170,CALIB,unknown,unknown,North
2015-09-18T13:00:28Z,1442581229,2015,13,0,261.542,258.698,69.1648,-138.195,1002.8,1.2,-999.0,yes,yes,no,300234011914170,CALIB,unknown,unknown,North
2015-09-18T13:59:31Z,1442584771,2015,14,0,261.583,258.739,69.1648,-138.195,1002.8,1.0,-999.0,yes,yes,no,300234011914170,CALIB,unknown,unknown,North
2015-09-18T15:00:00Z,1442588400,2015,15,0,261.625,258.781,69.1648,-138.195,1002.8,0.9,-999.0,yes,yes,no,300234011914170,CALIB,unknown,unknown,North
2015-09-18T16:00:28Z,1442592029,2015,16,0,261.667,258.823,69.1648,-138.195,1002.8,0.8,-999.0,yes,yes,no,300234011914170,CALIB,unknown,unknown,North
2015-09-18T16:59:31Z,1442595571,2015,17,0,261.708,258.864,69.1648,-138.195,1003.0,0.8,-999.0,yes,yes,no,300234011914170,CALIB,unknown,unknown,North
2015-09-18T18:00:00Z,1442599200,2015,18,0,261.75,258.906,69.1648,-138.195,1002.8,0.9,-999.0,yes,yes,no,300234011914170,CALIB,unknown,unknown,North
2015-09-18T19:00:28Z,1442602829,2015,19,0,261.792,258.948,69.1648,-138.195,1002.7,0.9,-999.0,yes,yes,no,300234011914170,CALIB,unknown,unknown,North
2015-09-18T19:59:31Z,1442606371,2015,20,0,261.833,258.989,69.1648,-138.195,1002.8,0.9,-999.0,yes,yes,no,300234011914170,CALIB,unknown,unknown,North
2015-09-18T21:00:00Z,1442610000,2015,21,0,261.875,259.031,69.1648,-138.195,1003.0,0.9,-999.0,yes,yes,no,300234011914170,CALIB,unknown,unknown,North
2015-09-18T22:00:28Z,1442613629,2015,22,0,261.917,259.073,69.1648,-138.195,1003.0,0.9,-999.0,yes,yes,no,300234011914170,CALIB,unknown,unknown,North
2015-09-18T22:59:31Z,1442617171,2015,23,0,261.958,259.114,69.1648,-138.195,1003.0,0.8,-999.0,yes,yes,no,300234011914170,CALIB,unknown,unknown,North
2015-09-19T00:00:00Z,1442620800,2015,0,0,262.0,259.156,69.1648,-138.195,1003.1,0.8,-999.0,yes,yes,no,300234011914170,CALIB,unknown,unknown,North
2015-09-19T01:00:28Z,1442624429,2015,1,0,262.042,259.198,69.1648,-138.195,1003.2,0.8,-999.0,yes,yes,no,300234011914170,CALIB,unknown,unknown,North
2015-09-19T01:59:31Z,1442627971,2015,2,0,262.083,259.239,69.1648,-138.195,1003.5,0.8,-999.0,yes,yes,no,300234011914170,CALIB,unknown,unknown,North
2015-09-19T03:00:00Z,1442631600,2015,3,0,262.125,259.281,69.1648,-138.195,1003.8,1.6,-999.0,yes,yes,no,300234011914170,CALIB,unknown,unknown,North
2015-09-19T04:00:28Z,1442635229,2015,4,0,262.167,259.323,69.1648,-138.195,1004.1,1.9,-999.0,yes,yes,no,300234011914170,CALIB,unknown,unknown,North
2015-09-19T04:59:31Z,1442638771,2015,5,0,262.208,259.364,69.1648,-138.195,1004.3,2.0,-999.0,yes,yes,no,300234011914170,CALIB,unknown,unknown,North
2015-09-19T06:00:00Z,1442642400,2015,6,0,262.25,259.406,69.1648,-138.195,1004.8,1.8,-999.0,yes,yes,no,300234011914170,CALIB,unknown,unknown,North
2015-09-19T07:00:28Z,1442646029,2015,7,0,262.292,259.448,69.1648,-138.195,1005.4,1.6,-999.0,yes,yes,no,300234011914170,CALIB,unknown,unknown,North
2015-09-19T07:59:31Z,1442649571,2015,8,0,262.333,259.489,69.1648,-138.195,1005.6,1.4,-999.0,yes,yes,no,300234011914170,CALIB,unknown,unknown,North
2015-09-19T09:00:00Z,1442653200,2015,9,0,262.375,259.531,69.1648,-138.195,1006.0,1.1,-999.0,yes,yes,no,300234011914170,CALIB,unknown,unknown,North
2015-09-19T10:00:28Z,1442656829,2015,10,0,262.417,259.573,69.1648,-138.195,1006.4,0.8,-999.0,yes,yes,no,300234011914170,CALIB,unknown,unknown,North
2015-09-19T10:59:31Z,1442660371,2015,11,0,262.458,259.614,69.1648,-138.195,1006.7,0.6,-999.0,yes,yes,no,300234011914170,CALIB,unknown,unknown,North
2015-09-19T12:00:00Z,1442664000,2015,12,0,262.5,259.656,69.1648,-138.195,1006.9,0.5,-999.0,yes,yes,no,300234011914170,CALIB,unknown,unknown,North
2015-09-19T13:00:28Z,1442667629,2015,13,0,262.542,259.698,69.1648,-138.195,1007.3,0.4,-999.0,yes,yes,no,300234011914170,CALIB,unknown,unknown,North
2015-09-19T13:59:31Z,1442671171,2015,14,0,262.583,259.739,69.1648,-138.195,1007.6,0.1,-999.0,yes,yes,no,300234011914170,CALIB,unknown,unknown,North
2015-09-19T15:00:00Z,1442674800,2015,15,0,262.625,259.781,69.1648,-138.195,1008.0,0.1,-999.0,yes,yes,no,300234011914170,CALIB,unknown,unknown,North
2015-09-19T16:00:28Z,1442678429,2015,16,0,262.667,259.823,69.1648,-138.195,1008.2,0.2,-999.0,yes,yes,no,300234011914170,CALIB,unknown,unknown,North
2015-09-19T16:59:31Z,1442681971,2015,17,0,262.708,259.864,69.1648,-138.195,1008.7,0.3,-999.0,yes,yes,no,300234011914170,CALIB,unknown,unknown,North
2015-09-19T18:00:00Z,1442685600,2015,18,0,262.75,259.906,69.1648,-138.195,1009.2,0.4,-999.0,yes,yes,no,300234011914170,CALIB,unknown,unknown,North
2015-09-19T19:00:28Z,1442689229,2015,19,0,262.792,259.948,69.1648,-138.195,1009.6,0.4,-999.0,yes,yes,no,300234011914170,CALIB,unknown,unknown,North
2015-09-19T19:59:31Z,1442692771,2015,20,0,262.833,259.989,69.1648,-138.195,1010.4,0.5,-999.0,yes,yes,no,300234011914170,CALIB,unknown,unknown,North
2015-09-19T21:00:00Z,1442696400,2015,21,0,262.875,260.031,69.1648,-138.195,1011.2,0.6,-999.0,yes,yes,no,300234011914170,CALIB,unknown,unknown,North
2015-09-19T22:00:28Z,1442700029,2015,22,0,262.917,260.073,69.1648,-138.195,1011.7,0.7,-999.0,yes,yes,no,300234011914170,CALIB,unknown,unknown,North
2015-09-19T22:59:31Z,1442703571,2015,23,0,262.958,260.114,69.1648,-138.195,1012.2,0.8,-999.0,yes,yes,no,300234011914170,CALIB,unknown,unknown,North
2015-09-20T00:00:00Z,1442707200,2015,0,0,263.0,260.156,69.1648,-138.195,1012.6,0.8,-999.0,yes,yes,no,300234011914170,CALIB,unknown,unknown,North
2015-09-20T01:00:28Z,1442710829,2015,1,0,263.042,260.198,69.1648,-138.195,1012.0,0.6,-999.0,yes,yes,no,300234011914170,CALIB,unknown,unknown,North
2015-09-20T01:59:31Z,1442714371,2015,2,0,263.083,260.239,69.1648,-138.195,1012.6,0.4,-999.0,yes,yes,no,300234011914170,CALIB,unknown,unknown,North
2015-09-20T03:00:00Z,1442718000,2015,3,0,263.125,260.281,69.1648,-138.195,1013.2,0.4,-999.0,yes,yes,no,300234011914170,CALIB,unknown,unknown,North
2015-09-20T04:00:28Z,1442721629,2015,4,0,263.167,260.323,69.1648,-138.195,1014.7,0.2,-999.0,yes,yes,no,300234011914170,CALIB,unknown,unknown,North
2015-09-20T04:59:31Z,1442725171,2015,5,0,263.208,260.364,69.1648,-138.195,1014.9,0.2,-999.0,yes,yes,no,300234011914170,CALIB,unknown,unknown,North
2015-09-20T06:00:00Z,1442728800,2015,6,0,263.25,260.406,69.1648,-138.195,1014.3,0.0,-999.0,yes,yes,no,300234011914170,CALIB,unknown,unknown,North
2015-09-20T07:00:28Z,1442732429,2015,7,0,263.292,260.448,69.1648,-138.195,1015.5,0.0,-999.0,yes,yes,no,300234011914170,CALIB,unknown,unknown,North
2015-09-20T07:59:31Z,1442735971,2015,8,0,263.333,260.489,69.1648,-138.195,1015.8,0.0,-999.0,yes,yes,no,300234011914170,CALIB,unknown,unknown,North
2015-09-20T09:00:00Z,1442739600,2015,9,0,263.375,260.531,69.1648,-138.195,1016.3,-0.1,-999.0,yes,yes,no,300234011914170,CALIB,unknown,unknown,North
2015-09-20T10:00:28Z,1442743229,2015,10,0,263.417,260.573,69.1648,-138.195,1016.6,-0.1,-999.0,yes,yes,no,300234011914170,CALIB,unknown,unknown,North
2015-09-20T10:59:31Z,1442746771,2015,11,0,263.458,260.614,69.1648,-138.195,1017.2,-0.1,-999.0,yes,yes,no,300234011914170,CALIB,unknown,unknown,North
2015-09-20T12:00:00Z,1442750400,2015,12,0,263.5,260.656,69.1648,-138.195,1016.6,-0.1,-999.0,yes,yes,no,300234011914170,CALIB,unknown,unknown,North
2015-09-20T13:00:28Z,1442754029,2015,13,0,263.542,260.698,69.1648,-138.195,1016.9,-0.1,-999.0,yes,yes,no,300234011914170,CALIB,unknown,unknown,North
2015-09-20T13:59:31Z,1442757571,2015,14,0,263.583,260.739,69.1648,-138.195,1017.3,-0.2,-999.0,yes,yes,no,300234011914170,CALIB,unknown,unknown,North
2015-09-20T15:00:00Z,1442761200,2015,15,0,263.625,260.781,69.1648,-138.195,1017.5,-0.2,-999.0,yes,yes,no,300234011914170,CALIB,unknown,unknown,North
2015-09-20T16:00:28Z,1442764829,2015,16,0,263.667,260.823,69.1648,-138.195,1017.9,-0.2,-999.0,yes,yes,no,300234011914170,CALIB,unknown,unknown,North
2015-09-20T16:59:31Z,1442768371,2015,17,0,263.708,260.864,69.1648,-138.195,1018.2,-0.1,-999.0,yes,yes,no,300234011914170,CALIB,unknown,unknown,North
2015-09-20T18:00:00Z,1442772000,2015,18,0,263.75,260.906,69.1648,-138.195,1019.0,0.0,-999.0,yes,yes,no,300234011914170,CALIB,unknown,unknown,North
2015-09-20T19:00:28Z,1442775629,2015,19,0,263.792,260.948,69.1648,-138.195,1019.1,0.0,-999.0,yes,yes,no,300234011914170,CALIB,unknown,unknown,North
2015-09-20T19:59:31Z,1442779171,2015,20,0,263.833,260.989,69.1648,-138.195,1019.3,0.2,-999.0,yes,yes,no,300234011914170,CALIB,unknown,unknown,North
2015-09-20T21:00:00Z,1442782800,2015,21,0,263.875,261.031,69.1648,-138.195,1019.6,0.5,-999.0,yes,yes,no,300234011914170,CALIB,unknown,unknown,North
2015-09-20T22:00:28Z,1442786429,2015,22,0,263.917,261.073,69.1648,-138.195,1019.8,0.7,-999.0,yes,yes,no,300234011914170,CALIB,unknown,unknown,North
2015-09-20T22:59:31Z,1442789971,2015,23,0,263.958,261.114,69.1648,-138.195,1020.0,0.8,-999.0,yes,yes,no,300234011914170,CALIB,unknown,unknown,North
2015-09-21T00:00:00Z,1442793600,2015,0,0,264.0,261.156,69.1648,-138.195,1020.1,0.8,-999.0,yes,yes,no,300234011914170,CALIB,unknown,unknown,North
2015-09-21T01:00:28Z,1442797229,2015,1,0,264.042,261.198,69.1648,-138.195,1020.2,0.7,-999.0,yes,yes,no,300234011914170,CALIB,unknown,unknown,North
2015-09-21T01:59:31Z,1442800771,2015,2,0,264.083,261.239,69.1648,-138.195,1020.4,0.6,-999.0,yes,yes,no,300234011914170,CALIB,unknown,unknown,North
2015-09-21T03:00:00Z,1442804400,2015,3,0,264.125,261.281,69.1648,-138.195,1020.7,0.4,-999.0,yes,yes,no,300234011914170,CALIB,unknown,unknown,North
2015-09-21T04:00:28Z,1442808029,2015,4,0,264.167,261.323,69.1648,-138.195,1020.7,0.3,-999.0,yes,yes,no,300234011914170,CALIB,unknown,unknown,North
2015-09-21T04:59:31Z,1442811571,2015,5,0,264.208,261.364,69.1648,-138.195,1020.8,0.1,-999.0,yes,yes,no,300234011914170,CALIB,unknown,unknown,North
2015-09-21T06:00:00Z,1442815200,2015,6,0,264.25,261.406,69.1648,-138.195,1020.9,0.0,-999.0,yes,yes,no,300234011914170,CALIB,unknown,unknown,North
2015-09-21T07:00:28Z,1442818829,2015,7,0,264.292,261.448,69.1648,-138.195,1021.0,-0.1,-999.0,yes,yes,no,300234011914170,CALIB,unknown,unknown,North
2015-09-21T07:59:31Z,1442822371,2015,8,0,264.333,261.489,69.1648,-138.195,1021.2,-0.1,-999.0,yes,yes,no,300234011914170,CALIB,unknown,unknown,North
2015-09-21T09:00:00Z,1442826000,2015,9,0,264.375,261.531,69.1648,-138.195,1021.5,-0.2,-999.0,yes,yes,no,300234011914170,CALIB,unknown,unknown,North
2015-09-21T10:00:28Z,1442829629,2015,10,0,264.417,261.573,69.1648,-138.195,1021.7,-0.3,-999.0,yes,yes,no,300234011914170,CALIB,unknown,unknown,North
2015-09-21T10:59:31Z,1442833171,2015,11,0,264.458,261.614,69.1648,-138.195,1021.8,-0.3,-999.0,yes,yes,no,300234011914170,CALIB,unknown,unknown,North
2015-09-21T12:00:00Z,1442836800,2015,12,0,264.5,261.656,69.1648,-138.195,1021.8,-0.3,-999.0,yes,yes,no,300234011914170,CALIB,unknown,unknown,North
2015-09-21T13:00:28Z,1442840429,2015,13,0,264.542,261.698,69.1648,-138.195,1021.7,-0.4,-999.0,yes,yes,no,300234011914170,CALIB,unknown,unknown,North
2015-09-21T13:59:31Z,1442843971,2015,14,0,264.583,261.739,69.1648,-138.195,1021.7,-0.4,-999.0,yes,yes,no,300234011914170,CALIB,unknown,unknown,North
2015-09-21T15:00:00Z,1442847600,2015,15,0,264.625,261.781,69.1648,-138.195,1021.6,-0.4,-999.0,yes,yes,no,300234011914170,CALIB,unknown,unknown,North
2015-09-21T16:00:28Z,1442851229,2015,16,0,264.667,261.823,69.1648,-138.195,1021.5,-0.2,-999.0,yes,yes,no,300234011914170,CALIB,unknown,unknown,North